Location: Grange Rosano
(44.4500°N, 6.9667°E)
Time: 21:24:45
(UTC+00:00)

Cosmos 2219 Rocket - Pass Details

Date: 26 May 2022
Orbit: 827 x 847 km, 71.0° (Epoch: 01 July)

Event Time Altitude Azimuth Distance (km) Brightness Sun altitude
Exits shadow 00:43:11 15° 267° (W) 2,088 4.0 -22.3°
Maximum altitude 00:46:24 24° 310° (NW) 1,649 3.9 -22.1°
Drops below altitude 10° 00:50:54 10° 4° (N) 2,444 5.6 -21.8°
Sets 00:53:49 0° 18° (NNE) 3,384 6.9 -21.7°
